• In India
  • List of Countries
  • For 7 days
  • Water Temperature
  • Weather Map
  • Weather Widgets
  • user-avatar
    Login

    Hourly Weather New Delhi

    Today, 21 August, Wednesday

    Time Temperature Precipitation Wind Pressure Humidity
    00:00 +33°C° 0 mm 1 mps 732 mmHg 53%
    01:00 +30°C° 0 mm 0 mps 732 mmHg 54%
    02:00 +30°C° 0 mm 0 mps 731 mmHg 55%
    03:00 +30°C° 0 mm 0 mps 732 mmHg 55%
    04:00 +30°C° 0 mm 0 mps 732 mmHg 56%
    05:00 +31°C° 0 mm 1 mps 731 mmHg 67%
    06:00 +32°C° 0.3 mm 2 mps 732 mmHg 63%
    07:00 +34°C° 0.3 mm 2 mps 732 mmHg 59%
    08:00 +35°C° 0.3 mm 2 mps 732 mmHg 55%
    09:00 +37°C° 0 mm 3 mps 732 mmHg 49%
    10:00 +38°C° 0 mm 3 mps 732 mmHg 43%
    11:00 +41°C° 0 mm 4 mps 732 mmHg 38%
    12:00 +41°C° 0 mm 4 mps 731 mmHg 36%
    13:00 +42°C° 0 mm 5 mps 731 mmHg 33%
    14:00 +43°C° 0 mm 5 mps 730 mmHg 31%
    15:00 +42°C° 0 mm 5 mps 730 mmHg 32%
    16:00 +42°C° 0 mm 4 mps 730 mmHg 34%
    17:00 +41°C° 0 mm 4 mps 729 mmHg 35%
    18:00 +40°C° 0 mm 4 mps 730 mmHg 37%
    19:00 +38°C° 0 mm 3 mps 730 mmHg 40%
    20:00 +37°C° 0 mm 3 mps 730 mmHg 42%
    21:00 +36°C° 0 mm 3 mps 730 mmHg 48%
    22:00 +35°C° 0 mm 4 mps 730 mmHg 53%
    23:00 +34°C° 0 mm 4 mps 730 mmHg 59%

    Tomorrow, 22 August, Thursday

    Time Temperature Precipitation Wind Pressure Humidity
    00:00 +33°C° 0 mm 3 mps 730 mmHg 61%
    01:00 +33°C° 0 mm 3 mps 730 mmHg 63%
    02:00 +31°C° 0 mm 2 mps 730 mmHg 65%
    03:00 +31°C° 0 mm 2 mps 730 mmHg 65%
    04:00 +31°C° 0 mm 2 mps 730 mmHg 65%
    05:00 +31°C° 0 mm 2 mps 731 mmHg 65%
    06:00 +32°C° 0 mm 2 mps 731 mmHg 63%
    07:00 +32°C° 0 mm 2 mps 732 mmHg 61%
    08:00 +34°C° 0 mm 2 mps 732 mmHg 60%
    09:00 +35°C° 0 mm 2 mps 733 mmHg 53%
    10:00 +37°C° 0 mm 2 mps 733 mmHg 47%
    11:00 +39°C° 0 mm 2 mps 733 mmHg 41%
    12:00 +38°C° 0 mm 3 mps 732 mmHg 43%
    13:00 +38°C° 0 mm 4 mps 732 mmHg 44%
    14:00 +39°C° 0 mm 5 mps 731 mmHg 46%
    15:00 +37°C° 0 mm 5 mps 731 mmHg 48%
    16:00 +36°C° 0 mm 5 mps 731 mmHg 51%
    17:00 +35°C° 0 mm 5 mps 730 mmHg 54%
    18:00 +34°C° 0 mm 4 mps 730 mmHg 57%
    19:00 +33°C° 0 mm 3 mps 730 mmHg 59%
    20:00 +31°C° 0 mm 2 mps 731 mmHg 62%
    21:00 +31°C° 0 mm 2 mps 731 mmHg 63%
    22:00 +31°C° 0 mm 2 mps 731 mmHg 63%
    23:00 +31°C° 0 mm 2 mps 731 mmHg 64%

    Day after tomorrow, 23 August, Friday

    Time Temperature Precipitation Wind Pressure Humidity
    00:00 +31°C° 0 mm 1 mps 731 mmHg 65%
    01:00 +30°C° 0 mm 1 mps 731 mmHg 66%
    02:00 +30°C° 0 mm 1 mps 731 mmHg 66%
    03:00 +30°C° 0 mm 1 mps 731 mmHg 66%
    04:00 +30°C° 0 mm 1 mps 731 mmHg 66%
    05:00 +28°C° 0 mm 0 mps 731 mmHg 66%
    06:00 +31°C° 0 mm 1 mps 731 mmHg 63%
    07:00 +32°C° 0 mm 1 mps 732 mmHg 59%
    08:00 +33°C° 0 mm 1 mps 732 mmHg 56%
    09:00 +34°C° 0 mm 1 mps 732 mmHg 50%
    10:00 +36°C° 0 mm 1 mps 732 mmHg 45%
    11:00 +39°C° 0 mm 1 mps 732 mmHg 39%
    12:00 +39°C° 0 mm 2 mps 732 mmHg 37%
    13:00 +40°C° 0 mm 3 mps 731 mmHg 35%
    14:00 +42°C° 0 mm 4 mps 730 mmHg 32%
    15:00 +41°C° 0 mm 4 mps 730 mmHg 34%
    16:00 +41°C° 0 mm 4 mps 729 mmHg 35%
    17:00 +40°C° 0 mm 4 mps 729 mmHg 36%
    18:00 +38°C° 0 mm 3 mps 729 mmHg 39%
    19:00 +37°C° 0 mm 3 mps 729 mmHg 41%
    20:00 +36°C° 0 mm 2 mps 730 mmHg 44%
    21:00 +36°C° 0 mm 2 mps 730 mmHg 47%
    22:00 +35°C° 0 mm 2 mps 730 mmHg 50%
    23:00 +35°C° 0 mm 2 mps 730 mmHg 53%

    24 August, Saturday

    Time Temperature Precipitation Wind Pressure Humidity
    00:00 +34°C° 0 mm 2 mps 730 mmHg 54%
    01:00 +34°C° 0 mm 2 mps 730 mmHg 56%
    02:00 +33°C° 0 mm 1 mps 730 mmHg 58%
    03:00 +33°C° 0 mm 1 mps 730 mmHg 59%
    04:00 +33°C° 0 mm 1 mps 730 mmHg 60%
    05:00 +32°C° 0 mm 1 mps 731 mmHg 61%
    06:00 +33°C° 0 mm 1 mps 731 mmHg 56%
    07:00 +34°C° 0 mm 1 mps 731 mmHg 52%
    08:00 +36°C° 0 mm 2 mps 732 mmHg 48%
    09:00 +37°C° 0 mm 2 mps 732 mmHg 43%
    10:00 +39°C° 0 mm 2 mps 732 mmHg 38%
    11:00 +41°C° 0 mm 2 mps 732 mmHg 32%
    12:00 +42°C° 0 mm 3 mps 731 mmHg 31%
    13:00 +43°C° 0 mm 4 mps 731 mmHg 30%
    14:00 +43°C° 0 mm 4 mps 730 mmHg 29%
    15:00 +43°C° 0 mm 4 mps 730 mmHg 30%
    16:00 +42°C° 0 mm 3 mps 729 mmHg 31%
    17:00 +42°C° 0 mm 3 mps 729 mmHg 33%
    18:00 +40°C° 0 mm 3 mps 729 mmHg 38%
    19:00 +38°C° 0 mm 3 mps 729 mmHg 43%
    20:00 +37°C° 0 mm 4 mps 730 mmHg 48%
    21:00 +36°C° 0 mm 4 mps 730 mmHg 52%
    22:00 +35°C° 0 mm 4 mps 730 mmHg 56%
    23:00 +34°C° 0 mm 4 mps 731 mmHg 60%

    25 August, Sunday

    Time Temperature Precipitation Wind Pressure Humidity
    00:00 +34°C° 0 mm 4 mps 731 mmHg 62%
    01:00 +33°C° 0 mm 3 mps 731 mmHg 65%
    02:00 +33°C° 0 mm 3 mps 731 mmHg 67%
    03:00 +33°C° 0 mm 3 mps 731 mmHg 69%
    04:00 +31°C° 0 mm 3 mps 731 mmHg 70%
    05:00 +31°C° 0 mm 3 mps 731 mmHg 71%
    06:00 +33°C° 0.1 mm 3 mps 731 mmHg 70%
    07:00 +33°C° 0.1 mm 3 mps 732 mmHg 68%
    08:00 +34°C° 0.1 mm 3 mps 732 mmHg 66%
    09:00 +35°C° 0.1 mm 3 mps 732 mmHg 60%
    10:00 +37°C° 0.1 mm 3 mps 732 mmHg 53%
    11:00 +38°C° 0.1 mm 3 mps 732 mmHg 47%
    12:00 +38°C° 0 mm 3 mps 732 mmHg 46%
    13:00 +38°C° 0 mm 3 mps 732 mmHg 46%
    14:00 +38°C° 0 mm 3 mps 731 mmHg 45%
    15:00 +38°C° 0 mm 4 mps 731 mmHg 47%
    16:00 +37°C° 0 mm 4 mps 731 mmHg 50%
    17:00 +37°C° 0 mm 4 mps 731 mmHg 52%
    18:00 +36°C° 0 mm 4 mps 731 mmHg 55%
    19:00 +35°C° 0 mm 4 mps 731 mmHg 57%
    20:00 +34°C° 0 mm 4 mps 731 mmHg 60%
    21:00 +34°C° 0 mm 3 mps 731 mmHg 61%
    22:00 +34°C° 0 mm 3 mps 731 mmHg 63%
    23:00 +33°C° 0 mm 3 mps 732 mmHg 64%

    26 August, Monday

    Time Temperature Precipitation Wind Pressure Humidity
    00:00 +32°C° 0 mm 2 mps 731 mmHg 64%
    01:00 +32°C° 0 mm 2 mps 731 mmHg 65%
    02:00 +32°C° 0 mm 2 mps 731 mmHg 65%
    03:00 +32°C° 0 mm 2 mps 731 mmHg 65%
    04:00 +32°C° 0 mm 2 mps 731 mmHg 66%
    05:00 +32°C° 0 mm 1 mps 731 mmHg 66%
    06:00 +32°C° 0.1 mm 2 mps 732 mmHg 65%
    07:00 +32°C° 0.1 mm 2 mps 732 mmHg 64%
    08:00 +32°C° 0.1 mm 2 mps 733 mmHg 63%
    09:00 +34°C° 0 mm 3 mps 733 mmHg 57%
    10:00 +36°C° 0 mm 3 mps 733 mmHg 52%
    11:00 +38°C° 0 mm 3 mps 733 mmHg 46%
    12:00 +38°C° 0 mm 3 mps 732 mmHg 44%
    13:00 +39°C° 0 mm 3 mps 731 mmHg 41%
    14:00 +40°C° 0 mm 3 mps 731 mmHg 39%
    15:00 +40°C° 0 mm 3 mps 730 mmHg 40%
    16:00 +39°C° 0 mm 3 mps 730 mmHg 41%
    17:00 +39°C° 0 mm 3 mps 730 mmHg 43%
    18:00 +38°C° 0 mm 2 mps 730 mmHg 45%
    19:00 +37°C° 0 mm 2 mps 730 mmHg 47%
    20:00 +36°C° 0 mm 1 mps 730 mmHg 49%
    21:00 +36°C° 0.1 mm 2 mps 730 mmHg 52%
    22:00 +35°C° 0.1 mm 2 mps 731 mmHg 55%
    23:00 +34°C° 0.1 mm 2 mps 731 mmHg 58%
    Show more